Regional Weather Roundup
Issued by NWS

Home | Current Version | Previous Version | Text Only | Print | Product List | Glossary On
Versions: 1 2 3 4 5 6 7 8 9 10 11 12 13 14 15 16 17 18 19 20 21 22 23 24 25 26 27 28 29 30 31 32 33 34 35 36 37 38 39 40 41 42 43 44 45 46 47 48 49 50
000
ASUS43 KLOT 281210
RWRIL

ILLINOIS REGIONAL WEATHER ROUNDUP
NATIONAL WEATHER SERVICE CHICAGO/ROMEOVILLE IL
600 AM CST FRI NOV 28 2014

NOTE: "FAIR" INDICATES FEW OR NO CLOUDS BELOW 12,000 FEET WITH NO
SIGNIFICANT WEATHER AND/OR OBSTRUCTIONS TO VISIBILITY.

* THESE STATIONS ARE NOT UNDER NWS QUALITY CONTROL. THEY ALSO MAY NOT
  REPORT WEATHER SUCH AS PRECIPITATION OR FOG.

ILZ001-002-007-009-015-016-024-281300-
NORTHWEST ILLINOIS

CITY           SKY/WX    TMP DP  RH WIND       PRES   REMARKS
MOLINE         CLOUDY    18   8  65 SE10      30.22F WCI   6
6HR MIN TEMP:  13; 6HR MAX TEMP:  18; 6HR PCP: TRACE;

STERLING*      CLOUDY    18  10  73 SE8       30.26F WCI   7
SAVANNA*       CLOUDY    17  11  77 SE10      30.23F WCI   5
$$

ILZ003-004-008-010-011-017-018-281300-
NORTH CENTRAL ILLINOIS

CITY           SKY/WX    TMP DP  RH WIND       PRES   REMARKS
ROCKFORD       CLOUDY    18  10  71 S9        30.29F WCI   7
6HR MIN TEMP:  13; 6HR MAX TEMP:  18; 6HR PCP: TRACE;

FREEPORT*      CLOUDY    15   8  73 SE9       30.26F WCI   4
ROCHELLE*      CLOUDY    17  11  80 S12       30.28S WCI   4
DE KALB*       CLOUDY    16  11  80 SE8       30.27F WCI   5
PERU*          CLOUDY    19  15  84 SE9       30.28F WCI   8
$$

ILZ005-006-012>014-019>023-281300-
NORTHEAST ILLINOIS

CITY           SKY/WX    TMP DP  RH WIND       PRES   REMARKS
CHICAGO-OHARE  CLOUDY    20  13  74 S6        30.30F WCI  12
6HR MIN TEMP:  18; 6HR MAX TEMP:  20; 6HR PCP: TRACE;

CHICAGO-MIDWAY CLOUDY    22  13  68 S6        30.31F WCI  14
6HR MIN TEMP:  20; 6HR MAX TEMP:  22; 6HR PCP: TRACE;

AURORA         CLOUDY    19  10  68 SE8       30.29F WCI   9
6HR MIN TEMP:  13; 6HR MAX TEMP:  19;

LANSING*       CLOUDY    20  15  79 S7        30.33S WCI  11
JOLIET*        CLOUDY    19  14  80 SE6       30.31F WCI  11
WAUKEGAN       CLOUDY    18  11  74 S8        30.27F WCI   8
6HR MIN TEMP:  13; 6HR MAX TEMP:  18;

DUPAGE AIRPORT CLOUDY    19  12  74 SE7       30.27F WCI  10
6HR MIN TEMP:  13; 6HR MAX TEMP:  19;

KANKAKEE*      CLOUDY   N/A N/A N/A SE6       30.34F
WHEELING       CLOUDY    20  12  71 S6        30.31F WCI  12
6HR MIN TEMP:  17; 6HR MAX TEMP:  20;

MORRIS*        CLOUDY    19  15  85 SE8       30.29F WCI   9
ROMEOVILLE*    CLOUDY    19  15  85 SE7       30.30F WCI  10
NORTHERLY ISL    N/A     21  11  65 S5          N/A  WCI  15
$$

LMZ740>746-281300-
SOUTHERN LAKE MICHIGAN

STATION/POSITION SKY/WX   TEMP    WIND        PRES    VSBY  WAVE
                          AIR SEA DIR/SP/G                  HT/PER
                          (F)     (DEG/KT/KT) (MB)    (MI)  (FT/S)
SOUTHERN BUOY              24 42  200/  6/ 10 1027.0F         2/ 6
WAUKEGAN HARBOR            20     200/ 11/ 13   N/A
HARRISON CRIB              21     190/ 10/ 12   N/A
BURNHAM HARBOR             21     190/  7/  7   N/A
CALUMET HARBOR             21     170/  5/  6 1025.5R
MICHIGAN CITY              21     170/  7/  9   N/A
$$

ILZ025>027-034>036-040-047-049-050-058-095>099-281300-
WEST-CENTRAL ILLINOIS

CITY           SKY/WX    TMP DP  RH WIND       PRES   REMARKS
QUINCY         PTCLDY    22  17  81 SE13      30.17F WCI  10
GALESBURG*     PTCLDY    16   9  72 SE8       30.23F WCI   5
MACOMB*        MOCLDY    16  12  84 SE12      30.25F WCI   2
JACKSONVILLE*  CLEAR     21  16  81 SE13      30.25F WCI   9
PITTSFIELD*    CLEAR     23  20  87 SE10      30.22F WCI  13
$$

ILZ028>032-037-038-041>044-048-051>054-059>061-281300-
CENTRAL ILLINOIS

CITY           SKY/WX    TMP DP  RH WIND       PRES   REMARKS
PONTIAC        CLOUDY    20  15  81 SE12      30.31F WCI   8
BLOOMINGTON    PTCLDY    19  13  77 S7        30.30F WCI  10
DECATUR        CLOUDY    20  11  68 SE9       30.32F WCI   9
PEORIA         PTCLDY    19   9  65 SE8       30.28F WCI   9
6HR MIN TEMP:  15; 6HR MAX TEMP:  20;

LACON*         MOCLDY    19  12  74 S9        30.28F WCI   8
LINCOLN*       PTCLDY    19  12  72 SE7       30.32F WCI  10
SPRINGFIELD    PTCLDY    18  12  77 SE10      30.28F WCI   6
6HR MIN TEMP:  16; 6HR MAX TEMP:  19;

TAYLORVILLE    PTCLDY    19  12  73 SE10      30.31F WCI   8
$$

ILZ033-039-045-046-055>057-062-063-281300-
EAST-CENTRAL ILLINOIS

CITY           SKY/WX    TMP DP  RH WIND       PRES   REMARKS
CHAMPAIGN      CLOUDY    20  13  74 SE7       30.33F WCI  11
DANVILLE*      CLOUDY    20  17  88 S8        30.33S WCI  10
RANTOUL*       CLOUDY    22  16  78 S10       30.33F WCI  11
MATTOON        MOCLDY    20  12  71 S9        30.34F WCI   9
PARIS*         PTCLDY    21  17  83 S6        30.38S WCI  13
$$

ILZ079-100>102-281300-
SOUTHWEST ILLINOIS

CITY           SKY/WX    TMP DP  RH WIND       PRES   REMARKS
BELLEVILLE     PTCLDY    23  22  97 SE6       30.32F WCI  16
CAHOKIA*       CLEAR     25  22  88 SE9       30.31F WCI  15
SPARTA*        CLEAR     25  23  91 SE7       30.34F WCI  17
$$

ILZ064>066-069>071-074>076-080>082-084>086-088>090-092>094-281300-
SOUTH-CENTRAL ILLINOIS

CITY           SKY/WX    TMP DP  RH WIND       PRES   REMARKS
CARBONDALE     CLEAR     25  22  88 SE5       30.36F WCI  19
6HR MIN TEMP:  24; 6HR MAX TEMP:  27;

CAIRO*         CLEAR     32  27  81 S9        30.39F WCI  24
EFFINGHAM*     MOCLDY    20  13  73 SE7       30.36F WCI  12
MARION         CLEAR     27  25  93 SE5       30.37F WCI  21
MT. VERNON     MOCLDY    25  18  74 CALM      30.37S
CENTRALIA*     PTCLDY    23  19  85 SE7       30.35F WCI  15
SALEM*           N/A     25  20  80 SE5       30.36S WCI  19
METROPOLIS*    CLEAR     26  26 100 CALM        N/A  FOG
$$

ILZ067-068-072-073-078-083-087-091-281300-
SOUTHEAST ILLINOIS

CITY           SKY/WX    TMP DP  RH WIND       PRES   REMARKS
LAWRENCEVILLE  CLOUDY    24  20  84 S5        30.41S WCI  18
FLORA*         CLOUDY    23  20  90 SE6       30.37F WCI  15
FAIRFIELD*     MOCLDY    25  21  87 E3        30.38F
HARRISBURG*    PTCLDY    27  26  94 SE5       30.40S WCI  22
ROBINSON*      MOCLDY    23  21  90 S3        30.41F
CARMI*         MOCLDY    28  28 100 W5        30.40S WCI  23
$$

ABBREVIATIONS USED IN REMARKS
   TC - TEMPERATURE IN CELSIUS
  WCI - WIND CHILL INDEX
   HX - HEAT INDEX
  VSB - VISIBILITY
$$




USA.gov is the U.S. government's official web portal to all federal, state and local government web resources and services.